OAL195 RJFG-RJBD

Flight info

Callsign OAL195
Flight time 1h 15m
Altitude 27000
Route JACKY B597 MADOG Y753 JAKAL A1 KEC ESBAK
Aircraft STAR/L-SDFGRWY/S

Departure

Time 2026-04-28 15:04
Airport New Tanegashima Airport (RJFG)

Arrival

Time 2026-04-28 16:19
Airport Nanki Shirahama Airport (RJBD)
Time Latitude Longitude Altitude Speed Heading
2026-04-28 14:49 30.60823 130.99198 775 ft 0 kts 17°
2026-04-28 15:00 30.60844 130.99183 775 ft 10 kts 278°
2026-04-28 15:00 30.60806 130.99071 776 ft 19 kts 222°
2026-04-28 15:01 30.60718 130.99004 776 ft 13 kts 213°
2026-04-28 15:01 30.60643 130.98958 775 ft 12 kts 177°
2026-04-28 15:01 30.60576 130.99036 773 ft 21 kts 121°
2026-04-28 15:01 30.60485 130.99197 771 ft 24 kts 123°
2026-04-28 15:02 30.60395 130.99355 770 ft 23 kts 123°
2026-04-28 15:02 30.60308 130.99508 769 ft 22 kts 123°
2026-04-28 15:02 30.60227 130.99653 768 ft 21 kts 123°
2026-04-28 15:02 30.60147 130.99795 766 ft 21 kts 123°
2026-04-28 15:03 30.60073 130.99938 765 ft 21 kts 111°
2026-04-28 15:03 30.60038 131.00039 763 ft 5 kts 149°
2026-04-28 15:03 30.60028 131.00005 763 ft 0 kts 303°
2026-04-28 15:04 30.60101 130.99876 766 ft 43 kts 303°
2026-04-28 15:04 30.60356 130.99425 769 ft 91 kts 303°
2026-04-28 15:04 30.60799 130.98710 1057 ft 119 kts 311°
2026-04-28 15:04 30.61601 130.98256 1688 ft 139 kts 347°
2026-04-28 15:05 30.62616 130.98399 2368 ft 162 kts 16°
2026-04-28 15:05 30.63551 130.99079 3377 ft 159 kts 33°
2026-04-28 15:05 30.64366 131.00017 4257 ft 168 kts 44°
2026-04-28 15:05 30.65213 131.01021 5060 ft 175 kts 40°
2026-04-28 15:06 30.66055 131.02018 6013 ft 170 kts 43°
2026-04-28 15:06 30.66876 131.02987 6974 ft 168 kts 43°
2026-04-28 15:06 30.67714 131.03970 7793 ft 175 kts 43°
2026-04-28 15:06 30.68609 131.04963 8597 ft 180 kts 36°
2026-04-28 15:07 30.69619 131.05857 9436 ft 184 kts 32°
2026-04-28 15:07 30.70673 131.06733 10268 ft 188 kts 32°
2026-04-28 15:07 30.71707 131.07697 11051 ft 192 kts 36°
2026-04-28 15:07 30.72713 131.08688 11838 ft 192 kts 34°
2026-04-28 15:08 30.73761 131.09662 12639 ft 194 kts 32°
2026-04-28 15:08 30.74818 131.10642 13445 ft 195 kts 32°
2026-04-28 15:08 30.75873 131.11645 14207 ft 197 kts 32°
2026-04-28 15:08 30.76942 131.12655 14903 ft 198 kts 31°
2026-04-28 15:09 30.78020 131.13667 15593 ft 200 kts 31°
2026-04-28 15:09 30.79114 131.14697 16285 ft 204 kts 31°
2026-04-28 15:09 30.80224 131.15750 16964 ft 208 kts 32°
2026-04-28 15:09 30.80971 131.16455 17425 ft 210 kts 32°
2026-04-28 15:10 30.82511 131.17908 18329 ft 216 kts 32°
2026-04-28 15:10 30.83685 131.19018 18935 ft 218 kts 32°
2026-04-28 15:10 30.84871 131.20143 19566 ft 221 kts 31°
2026-04-28 15:10 30.86072 131.21276 20196 ft 223 kts 31°
2026-04-28 15:11 30.87267 131.22402 20819 ft 224 kts 31°
2026-04-28 15:11 30.88480 131.23552 21455 ft 226 kts 32°
2026-04-28 15:11 30.89704 131.24711 22085 ft 228 kts 31°
2026-04-28 15:11 30.90938 131.25877 22713 ft 229 kts 32°
2026-04-28 15:12 30.92180 131.27054 23344 ft 231 kts 32°
2026-04-28 15:12 30.93434 131.28243 23908 ft 233 kts 32°
2026-04-28 15:12 30.94696 131.29439 24411 ft 235 kts 32°
2026-04-28 15:12 30.95970 131.30646 24918 ft 237 kts 32°
2026-04-28 15:13 30.97254 131.31863 25412 ft 239 kts 32°
2026-04-28 15:13 30.98550 131.33093 25898 ft 241 kts 31°
2026-04-28 15:13 30.99858 131.34334 26391 ft 243 kts 31°
2026-04-28 15:13 31.01193 131.35599 26719 ft 254 kts 31°
2026-04-28 15:14 31.02614 131.36943 26891 ft 272 kts 32°
2026-04-28 15:14 31.04120 131.38385 26973 ft 286 kts 33°
2026-04-28 15:14 31.05688 131.39876 27012 ft 295 kts 33°
2026-04-28 15:14 31.07307 131.41410 27031 ft 303 kts 33°
2026-04-28 15:15 31.08934 131.42962 27040 ft 309 kts 33°
2026-04-28 15:15 31.10067 131.44041 27040 ft 312 kts 33°
2026-04-28 15:15 31.12320 131.46183 27043 ft 318 kts 33°
2026-04-28 15:15 31.14039 131.47822 27044 ft 320 kts 33°
2026-04-28 15:16 31.15771 131.49472 27046 ft 323 kts 33°
2026-04-28 15:16 31.17521 131.51141 27045 ft 324 kts 33°
2026-04-28 15:16 31.19273 131.52813 27042 ft 326 kts 33°
2026-04-28 15:16 31.21031 131.54491 27042 ft 326 kts 33°
2026-04-28 15:17 31.22781 131.56191 27040 ft 327 kts 33°
2026-04-28 15:17 31.24584 131.57799 27032 ft 326 kts 32°
2026-04-28 15:17 31.26338 131.59426 27036 ft 327 kts 33°
2026-04-28 15:17 31.28120 131.61071 27038 ft 326 kts 32°
2026-04-28 15:18 31.29909 131.62702 27056 ft 327 kts 32°
2026-04-28 15:18 31.31690 131.64355 27045 ft 327 kts 32°
2026-04-28 15:18 31.33485 131.66000 27039 ft 328 kts 32°
2026-04-28 15:18 31.35275 131.67649 27036 ft 328 kts 32°
2026-04-28 15:19 31.37069 131.69306 27033 ft 328 kts 32°
2026-04-28 15:19 31.38867 131.70962 27032 ft 328 kts 32°
2026-04-28 15:19 31.40660 131.72618 27032 ft 328 kts 32°
2026-04-28 15:19 31.42451 131.74271 27029 ft 328 kts 32°
2026-04-28 15:20 31.44248 131.75929 27028 ft 329 kts 32°
2026-04-28 15:20 31.46046 131.77593 27029 ft 329 kts 32°
2026-04-28 15:20 31.47846 131.79256 27032 ft 329 kts 32°
2026-04-28 15:20 31.49640 131.80916 27027 ft 329 kts 32°
2026-04-28 15:21 31.51410 131.82555 27025 ft 328 kts 32°
2026-04-28 15:21 31.53203 131.84214 27028 ft 328 kts 32°
2026-04-28 15:21 31.54997 131.85876 27024 ft 328 kts 32°
2026-04-28 15:21 31.56786 131.87535 27022 ft 328 kts 32°
2026-04-28 15:22 31.58574 131.89196 27021 ft 328 kts 32°
2026-04-28 15:22 31.60364 131.90857 27033 ft 328 kts 32°
2026-04-28 15:22 31.62153 131.92520 27028 ft 328 kts 32°
2026-04-28 15:22 31.63940 131.94180 27025 ft 328 kts 32°
2026-04-28 15:23 31.65728 131.95843 27021 ft 328 kts 32°
2026-04-28 15:23 31.67517 131.97508 27020 ft 327 kts 32°
2026-04-28 15:23 31.69300 131.99167 27010 ft 327 kts 32°
2026-04-28 15:23 31.71088 132.00832 27014 ft 327 kts 32°
2026-04-28 15:24 31.72864 132.02489 27018 ft 326 kts 32°
2026-04-28 15:24 31.74642 132.04146 27019 ft 326 kts 32°
2026-04-28 15:24 31.76422 132.05808 27034 ft 327 kts 32°
2026-04-28 15:24 31.78179 132.07446 27023 ft 327 kts 32°
2026-04-28 15:25 31.79962 132.09110 27019 ft 327 kts 32°
2026-04-28 15:25 31.81742 132.10774 27017 ft 327 kts 32°
2026-04-28 15:25 31.83523 132.12439 27016 ft 327 kts 32°
2026-04-28 15:25 31.85303 132.14103 27015 ft 327 kts 32°
2026-04-28 15:26 31.87082 132.15768 27015 ft 327 kts 32°
2026-04-28 15:26 31.88860 132.17432 27015 ft 326 kts 32°
2026-04-28 15:26 31.90636 132.19096 27028 ft 327 kts 32°
2026-04-28 15:26 31.92413 132.20763 27013 ft 327 kts 32°
2026-04-28 15:27 31.94192 132.22425 27014 ft 326 kts 32°
2026-04-28 15:27 31.95970 132.24089 27012 ft 326 kts 32°
2026-04-28 15:27 31.97745 132.25753 27012 ft 326 kts 32°
2026-04-28 15:27 31.99520 132.27416 27013 ft 326 kts 32°
2026-04-28 15:28 32.01293 132.29078 27012 ft 326 kts 32°
2026-04-28 15:28 32.03069 132.30745 27009 ft 326 kts 32°
2026-04-28 15:28 32.04843 132.32410 27029 ft 326 kts 32°
2026-04-28 15:28 32.06618 132.34078 27018 ft 326 kts 32°
2026-04-28 15:29 32.08397 132.35747 27013 ft 327 kts 32°
2026-04-28 15:29 32.10154 132.37400 27013 ft 327 kts 32°
2026-04-28 15:29 32.11899 132.39129 27007 ft 330 kts 40°
2026-04-28 15:29 32.13411 132.41192 26996 ft 334 kts 50°
2026-04-28 15:30 32.14643 132.43532 27009 ft 336 kts 58°
2026-04-28 15:30 32.15814 132.45927 27009 ft 336 kts 54°
2026-04-28 15:30 32.17084 132.48231 27010 ft 336 kts 54°
2026-04-28 15:30 32.17892 132.49794 27026 ft 336 kts 56°
2026-04-28 15:31 32.19121 132.52150 27016 ft 336 kts 54°
2026-04-28 15:31 32.20367 132.54486 27006 ft 337 kts 55°
2026-04-28 15:31 32.21596 132.56841 27006 ft 337 kts 55°
2026-04-28 15:31 32.22836 132.59191 27008 ft 337 kts 54°
2026-04-28 15:32 32.24074 132.61544 26997 ft 337 kts 55°
2026-04-28 15:32 32.25308 132.63896 27003 ft 336 kts 55°
2026-04-28 15:32 32.26542 132.66245 27005 ft 336 kts 55°
2026-04-28 15:32 32.27759 132.68564 27004 ft 336 kts 55°
2026-04-28 15:33 32.28990 132.70913 27010 ft 336 kts 55°
2026-04-28 15:33 32.30221 132.73262 27014 ft 336 kts 55°
2026-04-28 15:33 32.31453 132.75612 27006 ft 336 kts 55°
2026-04-28 15:33 32.32684 132.77964 27006 ft 336 kts 55°
2026-04-28 15:34 32.33915 132.80317 27007 ft 337 kts 55°
2026-04-28 15:34 32.35145 132.82670 27006 ft 337 kts 55°
2026-04-28 15:34 32.36377 132.85028 27006 ft 336 kts 55°
2026-04-28 15:34 32.37606 132.87383 27003 ft 336 kts 55°
2026-04-28 15:35 32.38833 132.89735 27004 ft 336 kts 55°
2026-04-28 15:35 32.41289 132.94448 27017 ft 337 kts 55°
2026-04-28 15:35 32.42520 132.96809 27010 ft 337 kts 55°
2026-04-28 15:36 32.43751 132.99173 27007 ft 337 kts 55°
2026-04-28 15:36 32.44981 133.01540 27005 ft 337 kts 55°
2026-04-28 15:36 32.46212 133.03905 26998 ft 337 kts 55°
2026-04-28 15:36 32.47438 133.06268 27001 ft 337 kts 55°
2026-04-28 15:37 32.48664 133.08630 27003 ft 337 kts 55°
2026-04-28 15:37 32.49892 133.10995 27003 ft 337 kts 55°
2026-04-28 15:37 32.51116 133.13356 27004 ft 336 kts 55°
2026-04-28 15:37 32.52340 133.15718 27004 ft 336 kts 55°
2026-04-28 15:38 32.53563 133.18080 27004 ft 336 kts 55°
2026-04-28 15:38 32.54786 133.20443 27004 ft 336 kts 55°
2026-04-28 15:38 32.56008 133.22805 27004 ft 336 kts 55°
2026-04-28 15:38 32.57227 133.25164 26999 ft 336 kts 55°
2026-04-28 15:39 32.58433 133.27498 27000 ft 335 kts 55°
2026-04-28 15:39 32.59652 133.29860 27001 ft 335 kts 55°
2026-04-28 15:39 32.60868 133.32218 27001 ft 335 kts 55°
2026-04-28 15:39 32.62085 133.34579 27014 ft 335 kts 55°
2026-04-28 15:40 32.63302 133.36941 27007 ft 336 kts 55°
2026-04-28 15:40 32.64520 133.39303 27004 ft 336 kts 55°
2026-04-28 15:40 32.65744 133.41663 27003 ft 336 kts 57°
2026-04-28 15:40 32.66914 133.44066 27000 ft 336 kts 56°
2026-04-28 15:41 32.68118 133.46442 26998 ft 336 kts 56°
2026-04-28 15:41 32.69308 133.48828 27000 ft 336 kts 57°
2026-04-28 15:41 32.70496 133.51217 26998 ft 336 kts 56°
2026-04-28 15:41 32.71692 133.53601 26998 ft 336 kts 56°
2026-04-28 15:42 32.72881 133.55991 27009 ft 337 kts 56°
2026-04-28 15:42 32.74079 133.58394 27003 ft 339 kts 56°
2026-04-28 15:42 32.75281 133.60805 27000 ft 340 kts 56°
2026-04-28 15:42 32.76485 133.63226 26986 ft 340 kts 56°
2026-04-28 15:43 32.77694 133.65655 26996 ft 341 kts 56°
2026-04-28 15:43 32.78897 133.68076 26995 ft 341 kts 56°
2026-04-28 15:43 32.80103 133.70503 26995 ft 341 kts 56°
2026-04-28 15:43 32.81294 133.72903 26996 ft 341 kts 56°
2026-04-28 15:44 32.82503 133.75340 26995 ft 341 kts 56°
2026-04-28 15:44 32.83709 133.77771 27008 ft 342 kts 56°
2026-04-28 15:44 32.84918 133.80209 27001 ft 342 kts 56°
2026-04-28 15:44 32.86127 133.82650 26997 ft 342 kts 56°
2026-04-28 15:45 32.87335 133.85091 26985 ft 342 kts 56°
2026-04-28 15:45 32.88542 133.87532 26987 ft 342 kts 56°
2026-04-28 15:45 32.89747 133.89971 26989 ft 342 kts 56°
2026-04-28 15:45 32.90952 133.92409 26992 ft 342 kts 56°
2026-04-28 15:46 32.92157 133.94851 26991 ft 342 kts 56°
2026-04-28 15:46 32.93363 133.97296 27007 ft 342 kts 56°
2026-04-28 15:46 32.94571 133.99747 26997 ft 342 kts 56°
2026-04-28 15:46 32.95760 134.02159 26994 ft 343 kts 56°
2026-04-28 15:47 32.96966 134.04608 26986 ft 342 kts 56°
2026-04-28 15:47 32.98169 134.07056 26988 ft 342 kts 56°
2026-04-28 15:47 32.99373 134.09504 26989 ft 342 kts 56°
2026-04-28 15:47 33.00578 134.11955 26990 ft 342 kts 56°
2026-04-28 15:48 33.01778 134.14401 26992 ft 342 kts 56°
2026-04-28 15:48 33.02983 134.16855 26989 ft 342 kts 56°
2026-04-28 15:48 33.04185 134.19307 26999 ft 343 kts 56°
2026-04-28 15:48 33.05384 134.21767 26996 ft 343 kts 58°
2026-04-28 15:49 33.06426 134.24341 26982 ft 344 kts 65°
2026-04-28 15:49 33.07161 134.27023 26985 ft 345 kts 75°
2026-04-28 15:49 33.07754 134.29794 26986 ft 345 kts 74°
2026-04-28 15:49 33.08472 134.32521 26987 ft 345 kts 72°
2026-04-28 15:50 33.09134 134.35268 26987 ft 345 kts 74°
2026-04-28 15:50 33.09813 134.38015 26988 ft 345 kts 73°
2026-04-28 15:50 33.10498 134.40758 26988 ft 345 kts 73°
2026-04-28 15:50 33.11168 134.43510 27003 ft 345 kts 73°
2026-04-28 15:51 33.11849 134.46257 27000 ft 346 kts 73°
2026-04-28 15:51 33.12526 134.49012 26994 ft 346 kts 73°
2026-04-28 15:51 33.13203 134.51772 26991 ft 346 kts 73°
2026-04-28 15:51 33.13871 134.54487 26985 ft 346 kts 73°
2026-04-28 15:52 33.14547 134.57246 26988 ft 346 kts 73°
2026-04-28 15:52 33.15222 134.59999 26990 ft 346 kts 73°
2026-04-28 15:52 33.15898 134.62760 26978 ft 346 kts 73°
2026-04-28 15:52 33.16572 134.65516 26985 ft 345 kts 73°
2026-04-28 15:53 33.17244 134.68270 26985 ft 345 kts 73°
2026-04-28 15:53 33.17916 134.71021 27007 ft 345 kts 73°
2026-04-28 15:53 33.18577 134.73737 26965 ft 337 kts 73°
2026-04-28 15:53 33.19239 134.76449 26619 ft 342 kts 73°
2026-04-28 15:54 33.19903 134.79181 26278 ft 344 kts 73°
2026-04-28 15:54 33.20573 134.81939 25944 ft 346 kts 73°
2026-04-28 15:54 33.21246 134.84711 25616 ft 347 kts 73°
2026-04-28 15:54 33.21918 134.87484 25290 ft 348 kts 73°
2026-04-28 15:55 33.22590 134.90261 24970 ft 349 kts 73°
2026-04-28 15:55 33.23265 134.93048 24651 ft 349 kts 73°
2026-04-28 15:55 33.23936 134.95825 24335 ft 349 kts 73°
2026-04-28 15:55 33.24593 134.98612 24032 ft 348 kts 75°
2026-04-28 15:56 33.25288 135.01335 23705 ft 345 kts 71°
2026-04-28 15:56 33.26026 135.04053 23330 ft 342 kts 73°
2026-04-28 15:56 33.26712 135.06763 22937 ft 340 kts 72°
2026-04-28 15:56 33.27430 135.09443 22525 ft 338 kts 72°
2026-04-28 15:57 33.28125 135.12121 22143 ft 336 kts 73°
2026-04-28 15:57 33.28821 135.14788 21764 ft 335 kts 72°
2026-04-28 15:57 33.29516 135.17439 21392 ft 334 kts 72°
2026-04-28 15:57 33.30203 135.20080 21024 ft 332 kts 72°
2026-04-28 15:58 33.30889 135.22714 20660 ft 331 kts 72°
2026-04-28 15:58 33.31574 135.25342 20298 ft 331 kts 72°
2026-04-28 15:58 33.32257 135.27969 19943 ft 330 kts 72°
2026-04-28 15:58 33.32938 135.30588 19591 ft 329 kts 72°
2026-04-28 15:59 33.33615 135.33201 19243 ft 329 kts 72°
2026-04-28 15:59 33.34063 135.34926 19016 ft 328 kts 72°
2026-04-28 15:59 33.34958 135.38382 18569 ft 328 kts 72°
2026-04-28 15:59 33.35631 135.40984 18243 ft 327 kts 72°
2026-04-28 16:00 33.36318 135.43567 17872 ft 325 kts 71°
2026-04-28 16:00 33.36936 135.46161 17508 ft 323 kts 76°
2026-04-28 16:00 33.37532 135.48751 17161 ft 322 kts 73°
2026-04-28 16:00 33.38161 135.51321 16818 ft 320 kts 75°
2026-04-28 16:01 33.38754 135.53884 16494 ft 318 kts 75°
2026-04-28 16:01 33.39358 135.56422 16172 ft 317 kts 74°
2026-04-28 16:01 33.39958 135.58954 15861 ft 315 kts 75°
2026-04-28 16:01 33.40549 135.61475 15543 ft 313 kts 75°
2026-04-28 16:02 33.41128 135.63925 15234 ft 307 kts 75°
2026-04-28 16:02 33.41711 135.66401 14920 ft 303 kts 75°
2026-04-28 16:02 33.42270 135.68781 14622 ft 299 kts 75°
2026-04-28 16:02 33.42830 135.71162 14313 ft 296 kts 75°
2026-04-28 16:03 33.43386 135.73527 14013 ft 293 kts 76°
2026-04-28 16:03 33.44090 135.75792 13697 ft 289 kts 57°
2026-04-28 16:03 33.45413 135.77525 13361 ft 277 kts 28°
2026-04-28 16:03 33.47118 135.78379 13024 ft 256 kts 359°
2026-04-28 16:04 33.48795 135.78235 12693 ft 233 kts 332°
2026-04-28 16:04 33.50288 135.77576 12365 ft 226 kts 326°
2026-04-28 16:04 33.51733 135.76837 12087 ft 223 kts 324°
2026-04-28 16:04 33.53141 135.76079 11867 ft 227 kts 324°
2026-04-28 16:05 33.54575 135.75288 11646 ft 226 kts 324°
2026-04-28 16:05 33.56012 135.74528 11424 ft 226 kts 328°
2026-04-28 16:05 33.57496 135.73929 11208 ft 222 kts 330°
2026-04-28 16:05 33.58935 135.73309 11000 ft 219 kts 328°
2026-04-28 16:06 33.60365 135.72658 10781 ft 221 kts 329°
2026-04-28 16:06 33.61817 135.72037 10572 ft 223 kts 330°
2026-04-28 16:06 33.63293 135.71400 10361 ft 227 kts 329°
2026-04-28 16:06 33.64789 135.70741 10149 ft 230 kts 329°
2026-04-28 16:07 33.66302 135.70079 9936 ft 233 kts 330°
2026-04-28 16:07 33.67841 135.69410 9652 ft 236 kts 331°
2026-04-28 16:07 33.70841 135.68102 9088 ft 223 kts 331°
2026-04-28 16:08 33.72274 135.67475 8812 ft 217 kts 332°
2026-04-28 16:08 33.73685 135.66862 8544 ft 213 kts 331°
2026-04-28 16:08 33.75049 135.66262 8266 ft 208 kts 331°
2026-04-28 16:09 33.77744 135.65082 7726 ft 205 kts 332°
2026-04-28 16:09 33.79083 135.64495 7449 ft 204 kts 332°
2026-04-28 16:09 33.80408 135.63917 7191 ft 201 kts 332°
2026-04-28 16:10 33.81843 135.61509 6462 ft 188 kts 270°
2026-04-28 16:10 33.81778 135.59923 5999 ft 191 kts 265°
2026-04-28 16:10 33.81661 135.56716 5068 ft 196 kts 271°
2026-04-28 16:11 33.81580 135.53390 4332 ft 195 kts 271°
2026-04-28 16:11 33.81503 135.50288 4127 ft 176 kts 272°
2026-04-28 16:12 33.81426 135.47321 4025 ft 177 kts 271°
2026-04-28 16:12 33.81389 135.45843 3973 ft 175 kts 272°
2026-04-28 16:13 33.81308 135.42880 3883 ft 184 kts 272°
2026-04-28 16:13 33.81268 135.41318 3821 ft 189 kts 272°
2026-04-28 16:13 33.81183 135.38190 3567 ft 179 kts 271°
2026-04-28 16:14 33.81105 135.35291 3315 ft 172 kts 274°
2026-04-28 16:14 33.81032 135.32405 3011 ft 174 kts 272°
2026-04-28 16:15 33.80247 135.29720 2741 ft 181 kts 235°
2026-04-28 16:15 33.79412 135.28565 2616 ft 184 kts 231°
2026-04-28 16:15 33.78537 135.27432 2486 ft 184 kts 230°
2026-04-28 16:16 33.76308 135.26554 2342 ft 175 kts 157°
2026-04-28 16:16 33.75315 135.27347 2326 ft 174 kts 137°
2026-04-28 16:17 33.73429 135.29378 2279 ft 186 kts 134°
2026-04-28 16:17 33.72489 135.30415 2268 ft 180 kts 137°
2026-04-28 16:17 33.71499 135.31349 2058 ft 181 kts 139°
2026-04-28 16:17 33.70555 135.32233 1731 ft 165 kts 137°
2026-04-28 16:18 33.69699 135.33084 1365 ft 151 kts 137°
2026-04-28 16:18 33.69177 135.33603 1119 ft 143 kts 138°
2026-04-28 16:18 33.68437 135.34322 751 ft 130 kts 139°
2026-04-28 16:18 33.67776 135.34948 562 ft 115 kts 138°
2026-04-28 16:19 33.67185 135.35532 420 ft 112 kts 137°
2026-04-28 16:19 33.66581 135.36119 303 ft 98 kts 140°
2026-04-28 16:19 33.66016 135.36667 293 ft 58 kts 141°
2026-04-28 16:19 33.65889 135.36797 288 ft 11 kts 112°
2026-04-28 16:20 33.65898 135.36773 288 ft 13 kts 327°
2026-04-28 16:20 33.65928 135.36749 288 ft 2 kts 324°
2026-04-28 16:20 33.65968 135.36711 289 ft 13 kts 321°
2026-04-28 16:20 33.66046 135.36636 291 ft 14 kts 321°
2026-04-28 16:21 33.66118 135.36568 292 ft 14 kts 322°
2026-04-28 16:21 33.66202 135.36485 292 ft 15 kts 320°
2026-04-28 16:21 33.66273 135.36415 294 ft 12 kts 320°
2026-04-28 16:21 33.66342 135.36348 294 ft 14 kts 321°
2026-04-28 16:22 33.66391 135.36267 296 ft 12 kts 252°
2026-04-28 16:22 33.66346 135.36192 295 ft 10 kts 230°
2026-04-28 16:22 33.66326 135.36162 296 ft 7 kts 231°
2026-04-28 16:22 33.66287 135.36112 296 ft 5 kts 223°
2026-04-28 16:23 33.66283 135.36107 296 ft 0 kts 222°